TimeEST,TemperatureF,Dew PointF,Humidity,Sea Level PressureIn,VisibilityMPH,Wind Direction,Wind SpeedMPH,Gust SpeedMPH,PrecipitationIn,Events,Conditions,WindDirDegrees,DateUTC
12:53 AM,-9999,-9999,N/A,29.99,10.0,ENE,10.4,-,N/A,,Mostly Cloudy,60,2013-11-06 05:53:00
1:44 AM,-9999,-9999,N/A,29.97,10.0,ENE,10.4,18.4,N/A,,Overcast,60,2013-11-06 06:44:00
1:53 AM,-9999,-9999,N/A,29.97,10.0,ENE,11.5,18.4,N/A,,Overcast,60,2013-11-06 06:53:00
2:53 AM,-9999,-9999,N/A,29.96,10.0,ENE,10.4,-,N/A,,Overcast,60,2013-11-06 07:53:00
3:53 AM,-9999,-9999,N/A,29.96,10.0,ENE,10.4,17.3,N/A,,Overcast,60,2013-11-06 08:53:00
4:53 AM,-9999,-9999,N/A,29.97,9.0,ENE,10.4,-,N/A,,Overcast,60,2013-11-06 09:53:00
5:53 AM,-9999,-9999,N/A,29.98,10.0,ENE,10.4,-,N/A,,Scattered Clouds,60,2013-11-06 10:53:00
6:02 AM,77.0,71.6,83,29.99,10.0,ENE,11.5,17.3,N/A,,Mostly Cloudy,60,2013-11-06 11:02:00
6:53 AM,77.0,71.6,83,29.99,10.0,ENE,11.5,17.3,N/A,,Mostly Cloudy,60,2013-11-06 11:53:00
7:53 AM,78.8,71.6,78,30.00,10.0,ENE,9.2,-,N/A,,Mostly Cloudy,60,2013-11-06 12:53:00
8:53 AM,78.8,71.6,78,30.01,10.0,ENE,12.7,21.9,N/A,,Mostly Cloudy,60,2013-11-06 13:53:00
9:53 AM,80.6,71.6,74,30.01,10.0,ENE,15.0,25.3,N/A,,Mostly Cloudy,70,2013-11-06 14:53:00
10:53 AM,80.6,71.6,74,30.01,10.0,East,16.1,23.0,N/A,,Mostly Cloudy,80,2013-11-06 15:53:00
11:53 AM,82.4,71.6,70,30.01,10.0,East,13.8,23.0,N/A,,Mostly Cloudy,90,2013-11-06 16:53:00
12:53 PM,82.4,71.6,70,29.99,10.0,East,17.3,-,N/A,,Mostly Cloudy,80,2013-11-06 17:53:00
1:53 PM,82.4,71.6,70,29.96,10.0,East,15.0,-,N/A,,Mostly Cloudy,80,2013-11-06 18:53:00
2:53 PM,84.2,71.6,66,29.95,10.0,East,17.3,-,N/A,,Mostly Cloudy,80,2013-11-06 19:53:00
3:53 PM,82.0,72.0,71,29.95,10.0,ENE,16.1,23.0,N/A,,Mostly Cloudy,70,2013-11-06 20:53:00
4:53 PM,80.4,71.2,73,29.95,10.0,ENE,18.4,26.5,N/A,,Mostly Cloudy,70,2013-11-06 21:53:00
5:53 PM,79.2,70.0,73,29.96,10.0,ENE,15.0,-,N/A,,Mostly Cloudy,70,2013-11-06 22:53:00
6:53 PM,79.2,70.9,76,29.98,10.0,ENE,13.8,-,N/A,,Mostly Cloudy,70,2013-11-06 23:53:00
7:53 PM,79.2,70.9,76,30.00,10.0,ENE,15.0,-,N/A,,Mostly Cloudy,70,2013-11-07 00:53:00
8:53 PM,78.8,70.7,76,30.02,10.0,ENE,10.4,18.4,N/A,,Mostly Cloudy,70,2013-11-07 01:53:00
9:53 PM,78.8,70.7,76,30.02,10.0,ENE,9.2,-,N/A,,Mostly Cloudy,70,2013-11-07 02:53:00
10:53 PM,-9999,-9999,N/A,30.02,10.0,ENE,11.5,-,N/A,,Clear,70,2013-11-07 03:53:00
11:53 PM,-9999,-9999,N/A,30.01,10.0,East,11.5,-,N/A,,Clear,80,2013-11-07 04:53:00